Regional Weather Roundup
Issued by NWS

Home | Current Version | Previous Version | Text Only | Print | Product List | Glossary Off
Versions: 1 2 3 4 5 6 7 8 9 10 11 12 13 14 15 16 17 18 19 20 21 22 23 24 25 26 27 28 29 30 31 32 33 34 35 36 37 38 39 40 41 42 43 44 45 46 47 48 49 50

000
ASUS43 KDTX 200510
RWRMI
MICHIGAN HOURLY REGIONAL WEATHER ROUNDUP
NATIONAL WEATHER SERVICE DETROIT/PONTIAC MI
1200 AM EST SAT JAN 20 2018

NOTE: "FAIR" INDICATES FEW OR NO CLOUDS BELOW 12,000 FEET WITH NO
SIGNIFICANT WEATHER AND/OR OBSTRUCTION TO VISIBILITY.

MIZ047>049-052>055-059>063-066>070-074>076-081>083-200600-
SOUTHEAST LOWER MICHIGAN

CITY           SKY/WX    TMP DP  RH WIND       PRES   REMARKS
ADRIAN         FAIR      32  23  69 W12       29.82R WCI  23
ALMA           FAIR      35  25  67 SW13      29.68S WCI  27
ANN ARBOR      FAIR      33  24  69 SW14      29.78R WCI  23
BAD AXE        FAIR      35  24  63 SW20G33   29.62S WCI  24
CARO           FAIR      37  25  64 SW20G26   29.65R WCI  26
DETROIT CITY   FAIR      36  23  59 SW18G29   29.76R WCI  26
DETROIT        MOCLDY    35  24  64 SW24G35   29.78R WCI  23
FLINT          FAIR      37  23  56 SW18G31   29.71S WCI  27
GROSSE ILE     FAIR      37  25  62 SW14G29   29.78R WCI  28
HILLSDALE      FAIR      34  23  64 SW12G18   29.78R WCI  25
HOWELL         FAIR      37  26  64 SW16      29.73S WCI  27

CITY           SKY/WX    TMP DP  RH WIND       PRES   REMARKS
JACKSON        FAIR      36  24  62 SW21G30   29.76R WCI  25
LAMBERTVILLE   FAIR      36  24  63 W13G20    29.82R WCI  27
LANSING        FAIR      35  25  66 SW17G28   29.72S WCI  25
LAPEER         FAIR      37  24  59 SW13G21   29.68S WCI  28
MASON          FAIR      37  23  56 SW16G23   29.74S WCI  28
MONROE         FAIR      35  24  63 SW22G32   29.79R WCI  24
MT. CLEMENS    CLOUDY   N/A N/A N/A SW22G29     N/A
PONTIAC        CLOUDY    35  24  64 SW12G21   29.71S WCI  27
PORT HOPE        N/A     36  23  59 SW12G24   29.58R WCI  28
PORT HURON     FAIR      36  23  60 SW12G20   29.71S WCI  27
TRI CITIES     FAIR      35  26  69 SW21      29.65R WCI  24
MIDLAND        FAIR      37  26  64 SW14G20   29.63F WCI  28
TROY           FAIR      36  24  62 SW16      29.76R WCI  26
SAGINAW HB     FAIR      36  27  69 SW15G28   29.66S WCI  26
$$
MIZ043>046-050>051-056>058-064>065-071>073-077>080-200600-
SOUTHWEST LOWER MICHIGAN

CITY           SKY/WX    TMP DP  RH WIND       PRES   REMARKS
BATTLE CREEK   FAIR      34  24  67 SW17      29.78S WCI  23
BENTON HARBOR  FAIR      40  25  55 SW12G24   29.79R WCI  33
BIG RAPIDS     FAIR      37  28  71 SW13G26   29.64R WCI  28
COLDWATER      FAIR      35  24  65 SW16G22   29.80F WCI  25
FREMONT        FAIR      37  27  67 SW17G24   29.69S WCI  27
HOLLAND        FAIR      37  28  70 SW23G32   29.74S WCI  26
GRAND RAPIDS   MOCLDY    40  26  57 SW23G33   29.72S WCI  30
IONIA          FAIR      37  25  63 SW21G26   29.70S WCI  26
KALAMAZOO      FAIR      36  24  62 SW15      29.79R WCI  27
LUDINGTON      FAIR      37  31  79 SW20G25   29.65R WCI  27
MARSHALL       FAIR      35  23  63 SW16G24   29.78R WCI  24
MOUNT PLEASANT FAIR      38  27  63 SW14G22   29.64S WCI  30
MUSKEGON       FAIR      38  30  73 SW22G31   29.71F WCI  27
SOUTH HAVEN    FAIR      40  25  55 SW17G26   29.78R WCI  32
$$
MIZ016>042-200600-
NORTHERN LOWER MICHIGAN

CITY           SKY/WX    TMP DP  RH WIND       PRES   REMARKS
ALPENA         FAIR      38  27  64 SW14G22   29.50S WCI  30
BEAVER ISLAND  FAIR      37  30  75 SW13G24   29.50R WCI  29
CADILLAC       FAIR      35  28  75 SW16G29   29.57S WCI  25
CHARLEVOIX     FAIR      39  30  68 SW20G35   29.55R WCI  30
FRANKFORT      FAIR      38  33  81 SW12G22   29.60R WCI  31
GAYLORD        FAIR      36  27  69 W29G37    29.49R WCI  23
GRAYLING       FAIR      35  26  67 SW10G17   29.55R WCI  28
HARBOR SPRINGS FAIR      37  29  71 SW15G24   29.51S WCI  28
HOUGHTON LAKE  FAIR      35  27  72 SW14G23   29.57S WCI  26
MANISTEE       FAIR      39  29  67 SW12G21   29.63R WCI  32
OSCODA         FAIR      34  24  67 SW20G25   29.54S WCI  23
PELLSTON       FAIR      39  29  67 W25G40    29.47R WCI  28
ROGERS CITY    FAIR      38  27  62 W14G22    29.47S WCI  30
TRAVERSE CITY  FAIR      40  28  62 SW12G21   29.57R WCI  33
$$
MIZ007>008-015-200600-
EASTERN UPPER MICHIGAN

CITY           SKY/WX    TMP DP  RH WIND       PRES   REMARKS
KINROSS        FAIR      36  29  75 W16G25    29.44R WCI  26
MACKINAC ISLAN FAIR      35  31  83 SW17G28   29.46R WCI  25
NEWBERRY       FAIR      32  30  90 SW13      29.44R WCI  23
S. S. MARIE    FAIR      38  30  73 W14G21    29.43R WCI  30
MUNISING         N/A     36  28  73 SW10G17   29.46R WCI  28
$$
MIZ004>006-011>014-085-200600-
CENTRAL UPPER MICHIGAN

CITY           SKY/WX    TMP DP  RH WIND       PRES   REMARKS
MANISTIQUE     FAIR      32  28  86 W8        29.49R WCI  25
ESCANABA       FAIR      32  26  78 W7        29.52R WCI  26
MENOMINEE      FAIR      37  27  67 W9        29.57R WCI  30
SAWYER-GWINN   FAIR      30  23  76 SW5       29.47R WCI  25
$$
MIZ001>003-009>011-084-200600-
WESTERN UPPER MICHIGAN

CITY           SKY/WX    TMP DP  RH WIND       PRES   REMARKS
IRON MOUNTAIN  FAIR      36  26  67 W12       29.51R WCI  28
HOUGHTON       FAIR      38  28  67 W24G33    29.45R WCI  27
COPPER HARBOR    N/A     39  31  72 N22G33    29.41R WCI  29
IRONWOOD       FAIR      37  27  67 W14       29.57R WCI  28
$$

ABBREVIATIONS USED IN REMARKS
   TC - TEMPERATURE IN CELSIUS
  WCI - WIND CHILL INDEX
   HX - HEAT INDEX
  VSB - VISIBILITY





USA.gov is the U.S. government's official web portal to all federal, state and local government web resources and services.